20050113,000004,779782,31.998728,-122.412115,14.379,32.907,1.076,2.095
20050113,000033,779812,31.998855,-122.412223,14.378,32.905,1.088,2.121
20050113,000103,779841,31.999046,-122.412413,14.378,32.904,1.088,2.129
20050113,000133,779871,31.999198,-122.412588,14.377,32.908,1.063,2.095
20050113,000203,779901,31.999331,-122.412673,14.377,32.906,1.051,2.078
20050113,000233,779931,31.999465,-122.412803,14.376,32.905,1.038,2.063
20050113,000304,779962,31.999615,-122.412892,14.376,32.903,1.051,2.086
20050113,000334,779992,31.999756,-122.413058,14.376,32.907,1.038,2.063
20050113,000403,780021,31.999845,-122.413120,14.376,32.904,1.038,2.061
20050113,000434,780053,31.999936,-122.413245,14.378,32.904,1.051,2.079
20050113,000504,780083,32.000040,-122.413340,14.377,32.905,1.038,2.058
20050113,000534,780112,32.000172,-122.413433,14.378,32.901,1.051,2.095
20050113,000604,780142,32.000253,-122.413550,14.378,32.903,1.051,2.079
20050113,000633,780172,32.000308,-122.413720,14.377,32.904,1.076,2.109
20050113,000704,780203,32.000385,-122.413842,14.376,32.905,1.026,2.028
20050113,000734,780233,32.000502,-122.413987,14.376,32.905,1.063,2.093
20050113,000805,780264,32.000635,-122.414115,14.378,32.900,1.063,2.079
20050113,000834,780292,32.000722,-122.414252,14.375,32.906,1.063,2.073
20050113,000904,780322,32.000842,-122.414428,14.375,32.904,1.063,2.069
20050113,000934,780353,32.000963,-122.414632,14.374,32.904,1.076,2.086
20050113,001004,780383,32.001135,-122.414813,14.376,32.903,1.088,2.103
20050113,001034,780413,32.001287,-122.414955,14.376,32.903,1.332,2.494
20050113,001105,780444,32.001475,-122.415057,14.384,32.898,1.088,2.109
20050113,001134,780472,32.001665,-122.415155,14.381,32.901,1.076,2.090
20050113,001204,780502,32.001940,-122.415257,14.374,32.906,1.051,2.051
20050113,001234,780533,32.002243,-122.415415,14.373,32.904,1.063,2.068
20050113,001304,780563,32.002552,-122.415503,14.375,32.901,1.076,2.086
20050113,001335,780594,32.002770,-122.415605,14.373,32.903,1.076,2.083
20050113,001404,780622,32.002910,-122.415722,14.372,32.771,1.076,2.080
20050113,001434,780652,32.003062,-122.415812,14.373,32.901,1.088,2.097
20050113,001504,780682,32.003222,-122.415967,14.371,32.903,1.063,2.054
20050113,001534,780713,32.003433,-122.416100,14.371,32.904,1.076,2.068
20050113,001605,780743,32.003630,-122.416262,14.369,32.902,1.063,2.044
20050113,001635,780774,32.003838,-122.416413,14.368,32.906,1.076,2.060
20050113,001705,780804,32.004043,-122.416543,14.369,32.899,1.076,2.058
20050113,001734,780832,32.004183,-122.416657,14.370,32.900,1.088,2.081
20050113,001805,780863,32.004367,-122.416761,14.371,32.901,1.088,2.088
20050113,001835,780893,32.004543,-122.416960,14.372,32.900,1.088,2.093
20050113,001904,780923,32.004693,-122.417055,14.373,32.899,1.113,2.133
20050113,001935,780954,32.004840,-122.417191,14.375,32.901,1.101,2.152
20050113,002004,780982,32.004973,-122.417256,14.376,32.900,1.101,2.170
20050113,002035,781013,32.005143,-122.417381,14.375,32.901,1.126,2.210
20050113,002105,781043,32.005328,-122.417523,14.374,32.901,1.113,2.153
20050113,002135,781073,32.005487,-122.417653,14.373,32.902,1.088,2.121
20050113,002206,781104,32.005618,-122.417805,14.370,32.906,1.051,2.035
20050113,002235,781134,32.005793,-122.417970,14.371,32.901,1.076,2.066
20050113,002305,781164,32.005960,-122.418106,14.373,32.898,1.113,2.120
20050113,002335,781193,32.006147,-122.418206,14.371,32.899,1.076,2.057
20050113,002405,781223,32.006322,-122.418333,14.370,32.900,1.101,2.095
20050113,002435,781253,32.006502,-122.418473,14.367,32.901,1.101,2.095
20050113,002505,781284,32.006662,-122.418578,14.367,32.901,1.113,2.114
20050113,002536,781314,32.006822,-122.418695,14.368,32.900,1.088,2.073
20050113,002605,781344,32.006972,-122.418790,14.367,32.903,1.126,2.135
20050113,002636,781375,32.007158,-122.418930,14.369,32.899,1.126,2.136
20050113,002705,781403,32.007340,-122.419031,14.366,32.903,1.126,2.143
20050113,002736,781434,32.007523,-122.419138,14.368,32.906,1.088,2.104
20050113,002806,781464,32.007702,-122.419326,14.368,32.903,1.101,2.121
20050113,002836,781494,32.007882,-122.419431,14.371,32.898,1.113,2.131
20050113,002906,781525,32.008078,-122.419528,14.371,32.899,1.101,2.095
20050113,002936,781555,32.008260,-122.419655,14.369,32.904,1.101,2.084
20050113,003006,781585,32.008437,-122.419793,14.369,32.903,1.113,2.097
20050113,003036,781614,32.008632,-122.419890,14.371,32.903,1.113,2.091
20050113,003106,781644,32.008823,-122.419988,14.371,32.903,1.126,2.103
20050113,003136,781674,32.008990,-122.420090,14.371,32.904,1.101,2.058
20050113,003206,781705,32.009180,-122.420240,14.368,32.904,1.101,2.055
20050113,003236,781735,32.009360,-122.420391,14.368,32.904,1.126,2.092
20050113,003306,781764,32.009560,-122.420526,14.369,32.902,1.126,2.092
20050113,003336,781794,32.009847,-122.420725,14.370,32.902,1.126,2.092
20050113,003405,781824,32.010150,-122.420913,14.368,32.901,1.126,2.095
20050113,003436,781855,32.010485,-122.421065,14.370,32.912,1.138,2.118
20050113,003506,781885,32.010887,-122.421256,14.371,32.911,1.176,2.181
20050113,003536,781915,32.011290,-122.421421,14.370,32.911,1.151,2.144
20050113,003606,781944,32.011637,-122.421641,14.369,32.911,1.151,2.144
20050113,003636,781974,32.011952,-122.421868,14.369,32.911,1.189,2.203
20050113,003706,782004,32.012208,-122.422066,14.369,32.911,1.138,2.122
20050113,003736,782035,32.012467,-122.422296,14.370,32.906,1.425,2.566
20050113,003806,782065,32.012740,-122.422515,14.377,32.906,1.176,2.194
20050113,003837,782095,32.013002,-122.422711,14.382,32.906,1.151,2.148
20050113,003906,782124,32.013213,-122.422913,14.376,32.913,1.138,2.129
20050113,003936,782154,32.013417,-122.423028,14.370,32.915,1.163,2.167
20050113,004006,782184,32.013590,-122.423145,14.373,32.909,1.163,2.159
20050113,004036,782215,32.013647,-122.423235,14.373,32.910,1.176,2.166
20050113,004107,782245,32.013723,-122.423403,14.369,32.914,1.151,2.121
20050113,004137,782276,32.013828,-122.423515,14.365,32.913,1.138,2.098
20050113,004207,782306,32.013940,-122.423715,14.366,32.919,1.138,2.099
20050113,004237,782336,32.014065,-122.423838,14.368,32.916,1.189,2.180
20050113,004306,782365,32.014138,-122.423943,14.368,32.915,1.176,2.158
20050113,004337,782395,32.014252,-122.424015,14.369,32.917,1.163,2.135
20050113,004407,782425,32.014457,-122.424033,14.370,32.922,1.151,2.108
20050113,004437,782456,32.014622,-122.424153,14.368,32.919,1.151,2.112
20050113,004507,782486,32.014767,-122.424275,14.366,32.916,1.151,2.115
20050113,004537,782516,32.014917,-122.424325,14.361,32.922,1.176,2.150
20050113,004607,782545,32.015083,-122.424398,14.362,32.916,1.189,2.182
20050113,004637,782575,32.015263,-122.424471,14.365,32.916,1.176,2.158
20050113,004708,782606,32.015472,-122.424576,14.364,32.918,1.176,2.161
20050113,004738,782636,32.015648,-122.424668,14.363,32.919,1.176,2.158
20050113,004808,782666,32.015832,-122.424753,14.368,32.915,1.189,2.173
20050113,004837,782695,32.016052,-122.424870,14.366,32.918,1.176,2.147
20050113,004907,782725,32.016262,-122.424983,14.366,32.916,1.189,2.161
20050113,004937,782755,32.016443,-122.425083,14.368,32.916,1.202,2.172
20050113,005007,782786,32.016597,-122.425195,14.366,32.918,1.176,2.134
20050113,005038,782816,32.016767,-122.425283,14.368,32.921,1.189,2.148
20050113,005107,782846,32.016967,-122.425358,14.366,32.917,1.163,2.105
20050113,005137,782875,32.017205,-122.425460,14.366,32.920,1.189,2.136
20050113,005208,782907,32.017427,-122.425531,14.368,32.918,1.215,2.170
20050113,005237,782935,32.017637,-122.425605,14.366,32.922,1.176,2.113
20050113,005307,782966,32.017900,-122.425691,14.365,32.920,1.202,2.153
20050113,005337,782996,32.018133,-122.425765,14.367,32.920,1.176,2.112
20050113,005408,783027,32.018355,-122.425853,14.367,32.918,1.189,2.133
20050113,005437,783055,32.018532,-122.425963,14.366,32.918,1.163,2.093
20050113,005508,783087,32.018780,-122.426155,14.365,32.920,1.189,2.130
20050113,005537,783116,32.019075,-122.426301,14.367,32.920,1.189,2.128
20050113,005607,783146,32.019360,-122.426460,14.366,32.922,1.202,2.146
20050113,005638,783176,32.019698,-122.426630,14.363,32.919,1.215,2.166
20050113,005708,783207,32.020073,-122.426788,14.368,32.914,1.279,2.261
20050113,005738,783237,32.020460,-122.426963,14.370,32.918,1.228,2.182
20050113,005807,783265,32.020810,-122.427111,14.372,32.918,1.163,2.083
20050113,005838,783296,32.021170,-122.427296,14.371,32.919,1.189,2.118
20050113,005908,783326,32.021385,-122.427451,14.366,32.920,1.189,2.116
20050113,005938,783356,32.021533,-122.427581,14.364,32.920,1.189,2.114
20050113,010008,783387,32.021600,-122.427756,14.366,32.920,1.228,2.170
20050113,010037,783415,32.021618,-122.427871,14.366,32.918,1.176,2.094
20050113,010108,783446,32.021608,-122.427970,14.364,32.921,1.176,2.093
20050113,010138,783476,32.021553,-122.428100,14.362,32.921,1.176,2.092
20050113,010208,783506,32.021508,-122.428183,14.363,32.921,1.176,2.091
20050113,010238,783537,32.021418,-122.428255,14.365,32.918,1.126,2.014
20050113,010308,783567,32.021310,-122.428366,14.369,32.901,1.088,1.957
20050113,010338,783597,32.021158,-122.428463,14.368,32.908,1.126,2.011
20050113,010408,783626,32.021027,-122.428585,14.368,32.912,1.113,1.990
20050113,010439,783658,32.020872,-122.428700,14.370,32.911,1.126,2.007
20050113,010508,783686,32.020827,-122.428721,14.370,32.916,1.126,2.006
20050113,010538,783717,32.020965,-122.428580,14.368,32.918,1.189,2.098
20050113,010609,783747,32.021258,-122.428510,14.361,32.924,1.151,2.041
20050113,010638,783776,32.021565,-122.428816,14.362,32.919,1.176,2.079
20050113,010708,783806,32.021575,-122.429478,14.366,32.916,1.176,2.079
20050113,010738,783836,32.021145,-122.430283,14.367,32.916,1.151,2.041
20050113,010809,783867,32.020553,-122.431351,14.367,32.915,1.163,2.058
20050113,010839,783897,32.019955,-122.432555,14.363,32.922,1.151,2.038
20050113,010909,783927,32.019292,-122.433788,14.365,32.921,1.138,2.018
20050113,010939,783958,32.018568,-122.435131,14.368,32.919,1.176,2.073
20050113,011008,783986,32.017867,-122.436566,14.366,32.921,1.138,2.015
20050113,011038,784016,32.017057,-122.438065,14.364,32.921,1.151,2.033
20050113,011109,784047,32.016273,-122.439548,14.363,32.922,1.138,2.014
20050113,011139,784077,32.015503,-122.441046,14.363,32.922,1.126,1.995
20050113,011209,784107,32.014728,-122.442553,14.362,32.922,1.126,1.994
20050113,011238,784136,32.013963,-122.444015,14.362,32.920,1.126,1.993
20050113,011309,784168,32.013172,-122.445470,14.363,32.922,1.126,1.991
20050113,011338,784196,32.012398,-122.446968,14.363,32.918,1.113,1.972
20050113,011409,784227,32.011590,-122.448453,14.361,32.920,1.113,1.970
20050113,011439,784257,32.010817,-122.449903,14.360,32.916,1.113,1.969
20050113,011509,784288,32.010043,-122.451376,14.362,32.919,1.101,1.949
20050113,011538,784316,32.009257,-122.452843,14.361,32.923,1.101,1.948
20050113,011609,784348,32.008485,-122.454326,14.361,32.922,1.113,1.965
20050113,011639,784377,32.007700,-122.455780,14.359,32.923,1.126,1.983
20050113,011709,784407,32.006900,-122.457283,14.360,32.919,1.138,1.999
20050113,011739,784437,32.006143,-122.458651,14.361,32.924,1.138,1.998
20050113,011809,784468,32.005375,-122.460088,14.358,32.922,1.138,1.997
20050113,011840,784498,32.004603,-122.461553,14.359,32.923,1.151,2.014
20050113,011910,784528,32.003792,-122.463025,14.359,32.926,1.138,1.995
20050113,011940,784559,32.002975,-122.464558,14.358,32.923,1.151,2.012
20050113,012010,784589,32.002187,-122.466026,14.358,32.923,1.138,1.993
20050113,012040,784618,32.001408,-122.467446,14.357,32.923,1.126,1.975
20050113,012110,784648,32.000608,-122.468975,14.359,32.922,1.126,1.974
20050113,012140,784678,31.999785,-122.470416,14.358,32.924,1.113,1.955
20050113,012210,784709,31.999003,-122.471880,14.361,32.921,1.101,1.936
20050113,012240,784739,31.998235,-122.473345,14.363,32.918,1.101,1.935
20050113,012310,784769,31.997410,-122.474798,14.360,32.923,1.101,1.934
20050113,012339,784798,31.996650,-122.476223,14.361,32.921,1.101,1.934
20050113,012409,784828,31.995830,-122.477723,14.361,32.923,1.088,1.915
20050113,012439,784858,31.995068,-122.479133,14.361,32.921,1.076,1.896
20050113,012510,784889,31.994240,-122.480616,14.363,32.919,1.076,1.896
20050113,012540,784919,31.993446,-122.482043,14.362,32.920,1.076,1.896
20050113,012610,784948,31.992670,-122.483421,14.363,32.919,1.051,1.859
20050113,012640,784978,31.991825,-122.484911,14.364,32.919,1.088,1.913
20050113,012710,785008,31.991065,-122.486366,14.364,32.919,1.063,1.876
20050113,012740,785038,31.990250,-122.487791,14.366,32.919,1.063,1.876
20050113,012810,785069,31.989473,-122.489226,14.366,32.920,1.076,1.894
20050113,012839,785097,31.988688,-122.490640,14.368,32.917,1.063,1.875
20050113,012909,785127,31.987916,-122.492000,14.369,32.916,1.051,1.857
20050113,012940,785158,31.987113,-122.493415,14.369,32.919,1.063,1.875
20050113,013010,785188,31.986265,-122.494915,14.369,32.923,1.051,1.856
20050113,013039,785217,31.985476,-122.496360,14.368,32.918,1.076,1.892
20050113,013110,785249,31.984670,-122.497790,14.371,32.918,1.051,1.856
20050113,013140,785279,31.983828,-122.499258,14.371,32.916,1.051,1.855
20050113,013210,785308,31.983051,-122.500648,14.372,32.917,1.051,1.855
20050113,013239,785338,31.982251,-122.502076,14.372,32.915,1.038,1.837
20050113,013310,785368,31.981461,-122.503498,14.370,32.914,1.051,1.855
20050113,013340,785399,31.980648,-122.504905,14.372,32.917,1.038,1.837
20050113,013410,785429,31.979850,-122.506396,14.369,32.916,1.051,1.854
20050113,013440,785458,31.979051,-122.507746,14.369,32.916,1.026,1.819
20050113,013510,785488,31.978203,-122.509130,14.371,32.916,1.002,1.783
20050113,013540,785518,31.977425,-122.510605,14.370,32.915,0.990,1.765
20050113,013610,785549,31.976646,-122.512008,14.370,32.914,1.014,1.801
20050113,013641,785579,31.975818,-122.513490,14.368,32.916,1.002,1.783
20050113,013710,785609,31.975030,-122.514875,14.368,32.915,0.990,1.765
20050113,013740,785638,31.974185,-122.516310,14.368,32.913,0.990,1.765
20050113,013810,785668,31.973383,-122.517728,14.368,32.913,0.977,1.747
20050113,013840,785698,31.972606,-122.519083,14.370,32.914,0.977,1.747
20050113,013911,785729,31.971805,-122.520518,14.368,32.913,0.990,1.765
20050113,013941,785759,31.970996,-122.521891,14.373,32.911,0.953,1.712
20050113,014011,785789,31.970231,-122.523313,14.378,32.909,0.965,1.729
20050113,014040,785818,31.969406,-122.524700,14.377,32.911,0.965,1.729
20050113,014110,785848,31.968606,-122.526090,14.378,32.911,0.953,1.711
20050113,014140,785878,31.967828,-122.527458,14.380,32.910,1.002,1.782
20050113,014211,785909,31.967010,-122.528910,14.381,32.911,0.965,1.729
20050113,014241,785939,31.966215,-122.530315,14.381,32.911,0.941,1.694
20050113,014311,785970,31.965426,-122.531718,14.383,32.910,0.953,1.711
20050113,014340,785998,31.964633,-122.533116,14.384,32.911,0.929,1.676
20050113,014410,786028,31.963833,-122.534510,14.378,32.913,0.941,1.693
20050113,014440,786059,31.963048,-122.535896,14.378,32.912,0.965,1.729
20050113,014510,786089,31.962278,-122.537221,14.376,32.911,0.917,1.659
20050113,014541,786119,31.961458,-122.538663,14.376,32.912,0.929,1.676
20050113,014611,786150,31.960665,-122.540081,14.374,32.914,0.906,1.642
20050113,014640,786178,31.959880,-122.541491,14.372,32.913,0.929,1.676
20050113,014710,786208,31.959071,-122.542875,14.365,32.917,0.953,1.711
20050113,014740,786239,31.958300,-122.544290,14.363,32.915,0.953,1.711
20050113,014810,786269,31.957488,-122.545671,14.360,32.916,0.941,1.693
20050113,014841,786299,31.956668,-122.547053,14.358,32.915,0.941,1.693
20050113,014911,786330,31.955913,-122.548473,14.358,32.915,0.941,1.693
20050113,014941,786360,31.955075,-122.549901,14.355,32.914,0.953,1.711
20050113,015011,786389,31.954298,-122.551271,14.352,32.916,0.953,1.711
20050113,015041,786419,31.953475,-122.552678,14.350,32.917,0.953,1.711
20050113,015111,786449,31.952710,-122.554105,14.348,32.918,0.953,1.711
20050113,015142,786480,31.951873,-122.555551,14.347,32.915,0.953,1.711
20050113,015212,786510,31.951078,-122.556958,14.345,32.915,0.953,1.711
20050113,015242,786540,31.950283,-122.558360,14.343,32.916,0.965,1.728
20050113,015312,786571,31.949475,-122.559773,14.341,32.916,0.941,1.693
20050113,015341,786599,31.948685,-122.561143,14.340,32.915,0.941,1.693
20050113,015411,786629,31.947905,-122.562483,14.340,32.917,0.941,1.693
20050113,015442,786660,31.947078,-122.563931,14.341,32.913,0.941,1.693
20050113,015512,786690,31.946275,-122.565345,14.340,32.915,0.953,1.711
20050113,015541,786719,31.945455,-122.566750,14.339,32.916,0.929,1.676
20050113,015611,786749,31.944690,-122.568095,14.339,32.915,0.953,1.711
20050113,015642,786781,31.943885,-122.569510,14.339,32.914,0.941,1.693
20050113,015712,786810,31.943071,-122.570866,14.340,32.914,0.917,1.659
20050113,015742,786840,31.942286,-122.572260,14.339,32.915,0.953,1.711
20050113,015812,786870,31.941440,-122.573711,14.336,32.920,0.941,1.693
20050113,015842,786901,31.940671,-122.575075,14.337,32.916,0.917,1.659
20050113,015912,786931,31.939865,-122.576471,14.336,32.916,0.906,1.642
20050113,015943,786962,31.939053,-122.577896,14.337,32.913,0.858,1.572
20050113,020012,786990,31.938306,-122.579238,14.337,32.914,0.846,1.555
20050113,020042,787020,31.937533,-122.580611,14.334,32.917,0.846,1.555
20050113,020112,787050,31.936733,-122.581996,14.334,32.916,0.846,1.555
20050113,020142,787081,31.935950,-122.583378,14.333,32.916,0.824,1.522
20050113,020212,787111,31.935155,-122.584778,14.332,32.917,0.824,1.522
20050113,020242,787140,31.934366,-122.586176,14.332,32.916,0.812,1.505
20050113,020312,787170,31.933568,-122.587558,14.332,32.915,0.812,1.505
20050113,020342,787200,31.932791,-122.588948,14.330,32.912,0.789,1.471
20050113,020413,787231,31.931971,-122.590418,14.329,32.912,0.789,1.471
20050113,020442,787261,31.931193,-122.591786,14.326,32.916,0.777,1.454
20050113,020512,787291,31.930405,-122.593206,14.325,32.917,0.777,1.454
20050113,020542,787320,31.929593,-122.594668,14.324,32.916,0.777,1.454
20050113,020612,787350,31.928801,-122.596043,14.324,32.916,0.766,1.437
20050113,020642,787380,31.928050,-122.597400,14.321,32.921,0.766,1.437
20050113,020713,787411,31.927251,-122.598856,14.314,32.921,0.789,1.471
20050113,020742,787441,31.926490,-122.600186,14.312,32.919,0.789,1.471
20050113,020812,787470,31.925690,-122.601625,14.308,32.920,0.812,1.505
20050113,020842,787500,31.924925,-122.602956,14.308,32.920,0.824,1.522
20050113,020913,787532,31.924130,-122.604388,14.308,32.919,0.835,1.538
20050113,020943,787561,31.923366,-122.605768,14.308,32.919,0.846,1.555
20050113,021012,787591,31.922590,-122.607173,14.309,32.917,0.846,1.555
20050113,021043,787621,31.921801,-122.608546,14.308,32.919,0.858,1.572
20050113,021113,787652,31.921025,-122.609881,14.308,32.917,0.858,1.572
20050113,021143,787682,31.920261,-122.611298,14.307,32.920,0.882,1.607
20050113,021212,787710,31.919513,-122.612630,14.305,32.921,0.858,1.572
20050113,021243,787741,31.918715,-122.614086,14.306,32.919,0.858,1.572
20050113,021313,787771,31.917938,-122.615498,14.306,32.921,0.870,1.590
20050113,021343,787801,31.917170,-122.616896,14.306,32.918,0.882,1.607
20050113,021412,787830,31.916403,-122.618253,14.302,32.922,0.882,1.607
20050113,021443,787862,31.915620,-122.619651,14.300,32.921,0.858,1.572
20050113,021513,787891,31.914811,-122.621115,14.301,32.918,0.906,1.642
20050113,021543,787921,31.914061,-122.622476,14.305,32.921,0.870,1.590
20050113,021612,787951,31.913286,-122.623870,14.300,32.920,0.870,1.590
20050113,021643,787982,31.912515,-122.625295,14.298,32.922,0.894,1.624
20050113,021714,788012,31.911706,-122.626758,14.297,32.923,0.894,1.624
20050113,021743,788042,31.910978,-122.628118,14.293,32.923,0.882,1.607
20050113,021814,788073,31.910166,-122.629536,14.292,32.921,0.906,1.642
20050113,021843,788101,31.909410,-122.630881,14.290,32.923,0.906,1.641
20050113,021914,788132,31.908616,-122.632316,14.288,32.922,0.894,1.624
20050113,021944,788162,31.907860,-122.633728,14.287,32.924,0.953,1.711
20050113,022013,788192,31.907073,-122.635133,14.284,32.923,0.929,1.676
20050113,022044,788223,31.906298,-122.636501,14.279,32.928,0.917,1.659
20050113,022114,788253,31.905520,-122.637890,14.277,32.925,0.941,1.693
20050113,022144,788283,31.904773,-122.639306,14.275,32.922,0.929,1.676
20050113,022213,788312,31.904000,-122.640726,14.275,32.924,0.941,1.693
20050113,022244,788342,31.903220,-122.642140,14.272,32.923,0.941,1.693
20050113,022314,788372,31.902433,-122.643558,14.272,32.923,0.941,1.693
20050113,022344,788403,31.901623,-122.645010,14.273,32.923,0.953,1.711
20050113,022415,788433,31.900845,-122.646416,14.273,32.923,0.965,1.728
20050113,022444,788463,31.900073,-122.647770,14.275,32.923,0.953,1.711
20050113,022514,788492,31.899316,-122.649205,14.276,32.923,0.929,1.676
20050113,022545,788524,31.898506,-122.650650,14.277,32.922,0.929,1.676
20050113,022614,788552,31.897766,-122.652006,14.279,32.922,0.929,1.676
20050113,022645,788583,31.896976,-122.653466,14.277,32.924,0.941,1.693
20050113,022715,788613,31.896210,-122.654825,14.279,32.923,0.929,1.676
20050113,022745,788644,31.895473,-122.656238,14.281,32.923,0.929,1.676
20050113,022814,788672,31.894720,-122.657646,14.280,32.923,0.906,1.642
20050113,022844,788702,31.893968,-122.658996,14.278,32.923,0.929,1.676
20050113,022915,788733,31.893183,-122.660465,14.280,32.904,0.941,1.693
20050113,022945,788763,31.892395,-122.661863,14.278,32.925,0.977,1.746
20050113,023015,788793,31.891610,-122.663251,14.280,32.924,0.906,1.642
20050113,023045,788824,31.890901,-122.664658,14.282,32.922,0.929,1.676
20050113,023114,788852,31.890126,-122.666073,14.284,32.923,0.929,1.676
20050113,023144,788882,31.889368,-122.667445,14.288,32.923,0.906,1.642
20050113,023215,788913,31.888571,-122.668881,14.290,32.923,0.894,1.624
20050113,023245,788943,31.887776,-122.670250,14.294,32.932,0.917,1.659
20050113,023315,788973,31.887003,-122.671635,14.295,32.924,0.906,1.642
20050113,023345,789004,31.886226,-122.673048,14.299,32.926,0.894,1.624
20050113,023414,789032,31.885458,-122.674461,14.301,32.926,0.894,1.624
20050113,023445,789063,31.884640,-122.675908,14.306,32.923,0.917,1.659
20050113,023515,789093,31.883888,-122.677306,14.307,32.927,0.894,1.624
20050113,023545,789123,31.883120,-122.678645,14.310,32.925,0.870,1.590
20050113,023616,789154,31.882308,-122.680088,14.313,32.924,0.894,1.624
20050113,023645,789184,31.881553,-122.681456,14.315,32.926,0.906,1.642
20050113,023716,789214,31.880758,-122.682903,14.314,32.929,0.894,1.624
20050113,023745,789243,31.880028,-122.684256,14.317,32.929,0.894,1.624
20050113,023815,789273,31.879263,-122.685610,14.319,32.930,0.882,1.607
20050113,023845,789303,31.878506,-122.687003,14.319,32.930,0.882,1.607
20050113,023916,789334,31.877721,-122.688443,14.322,32.929,0.882,1.607
20050113,023946,789364,31.876961,-122.689813,14.324,32.929,0.882,1.607
20050113,024016,789395,31.876216,-122.691160,14.328,32.931,0.882,1.607
20050113,024046,789425,31.875493,-122.692556,14.330,32.932,0.858,1.572
20050113,024116,789455,31.874740,-122.693950,14.330,32.933,0.870,1.590
20050113,024146,789484,31.873975,-122.695355,14.333,32.931,0.846,1.555
20050113,024216,789514,31.873203,-122.696758,14.335,32.932,0.870,1.590
20050113,024246,789544,31.872431,-122.698158,14.338,32.930,0.870,1.590
20050113,024316,789575,31.871650,-122.699598,14.342,32.933,0.835,1.538
20050113,024346,789605,31.870918,-122.700946,14.344,32.933,0.846,1.555
20050113,024416,789635,31.870160,-122.702308,14.348,32.932,0.835,1.538
20050113,024446,789664,31.869416,-122.703698,14.352,32.932,0.812,1.505
20050113,024516,789694,31.868668,-122.705095,14.353,32.935,0.824,1.522
20050113,024546,789724,31.867888,-122.706451,14.356,32.935,0.800,1.488
20050113,024616,789755,31.867140,-122.707793,14.355,32.937,0.812,1.505